Home   Weather   Walvis Bay   Past weeks

Flag for Namibia Past Weather in Walvis Bay, Namibia — Yesterday and Last 2 Weeks

Now
63 °F

Mild.


Feels Like: 63 °F
Forecast: 62 / 75 °F
Wind: 9 mph from Northwest

Location: Walvis Bay

Current Time: Dec 6, 2016 at 2:53:40 am

Latest Report: Dec 6, 2016 at 2:00 am


Visibility: N/A

Pressure: 29.92 "Hg

Humidity: 83%

Dew Point: 57 °F

Location of Walvis BayLocation

Past Weather in Walvis Bay — Graph

°F

Walvis Bay Temperature Yesterday

Maximum temperature yesterday: 77 °F (at 11:00 am)
Minimum temperature yesterday: 59 °F (at 3:00 am)
Average temperature yesterday: 67 °F

High & Low Weather Summary for the Past Weeks

 TemperatureHumidityPressure
High82 °F (Nov 21, 7:00 pm)94% (Nov 21, 6:00 am)30.07 "Hg (Nov 21, 6:00 am)
Low55 °F (Dec 2, 1:00 am)30% (Nov 21, 7:00 pm)29.74 "Hg (Nov 28, 6:00 pm)
Average65 °F73%29.93 "Hg
* Reported Nov 21 1:00 am — Dec 6 1:00 am, Walvis Bay, Weather by CustomWeather, © 2016

Note: Actual official high and low records may vary slightly from our data, if they occured in-between our weather recording intervals... More about our weather records

Advertising

Walvis Bay Weather History for the Previous 24 Hours

Scroll right to see more
 ConditionsComfort  
Time TempWeatherWind HumidityBarometerVisibility
1:00 am
Tue, Dec 6
63 °FMild.9 mph83%29.95 "HgN/A
12:00 am63 °FMild.9 mph83%29.95 "HgN/A
11:00 pm
Mon, Dec 5
64 °FMild.9 mph78%29.95 "HgN/A
10:00 pm64 °FMild.10 mph78%29.95 "HgN/A
9:00 pm64 °FMild.8 mph78%29.92 "HgN/A
8:00 pm66 °FMild.7 mph68%29.89 "HgN/A
4:00 pm75 °FMild.13 mph50%29.86 "HgN/A
1:00 pm77 °FWarm.8 mph47%29.89 "HgN/A
12:00 pm73 °FMild.10 mph57%29.92 "HgN/A
11:00 am77 °FSunny.7 mph57%29.89 "Hg10 mi
10:00 am73 °FSunny.5 mph65%29.89 "Hg10 mi
9:00 am75 °FMild.9 mph50%29.92 "HgN/A
8:00 am70 °FSunny.8 mph73%29.89 "Hg10 mi
5:00 am59 °FCool.3 mph88%29.92 "HgN/A
4:00 am59 °FCool.3 mph88%29.92 "HgN/A
3:00 am59 °FCool.2 mph88%29.89 "HgN/A
2:00 am61 °FCool.3 mph83%29.92 "HgN/A
Weather by CustomWeather, © 2016

See weather overviewHow to use our weather pages